Location: Gad�tanya
(48.0500°N, 20.8500°E)
Time: 11:35:18
(UTC+00:00)

CARTOSAT-1 - Pass Details

Date: 05 July 2020
Orbit: 617 x 618 km, 97.8° (Epoch: 15 August)

Event Time Altitude Azimuth Distance (km) Brightness Sun altitude
Exits shadow 20:32:56 14° 188° (S) 1,703 5.4 -13.6°
Maximum altitude 20:36:23 49° 261° (W) 806 4.3 -13.9°
Drops below altitude 10° 20:40:36 10° 336° (NNW) 1,994 7.6 -14.3°
Sets 20:42:52 0° 342° (NNW) 2,905 8.8 -14.4°
